Orbital Elements at Epoch 2459200.5 (2020-Dec-17.0) TDB
Reference: JPL 16 (heliocentric ecliptic J2000)
Element | Value | Uncertainty (1-sigma) | Units |
e | .1718337728960456 | 5.2764e-08 | |
a | 2.130646241245 | 9.6013e-09 | au |
q | 1.764529258905094 | 1.1728e-07 | au |
i | .9158710735427132 | 6.3314e-06 | deg |
node | 35.34383769557035 | 0.00025272 | deg |
peri | 249.8623641297121 | 0.00025358 | deg |
M | 247.0363207268774 | 2.3108e-05 | deg |
tp | 2459556.952592376156 (2021-Dec-08.45259238) | 7.4649e-05 | TDB |
period | 1135.966304223841 3.11 | 7.6785e-06 2.102e-08 | d yr |
n | .3169108085877365 | 2.1421e-09 | deg/d |
Q | 2.496763223584906 | 1.1251e-08 | au |
|
| | Orbit Determination Parameters
Additional Information
|